Home > Weather > Corner Brook > Past weeks

Flag for Canada Weather for the Past 2 Weeks in Corner Brook, Newfoundland and Labrador, Canada

Now
10 °F

Passing clouds.


Feels Like: 4 °F
Forecast: N/A
Wind: 3 mph from Northwest

Location: Deer Lake

Current Time: Feb 14, 2016 at 6:23:53 PM

Latest Report: Feb 14, 2016 at 5:30 PM


Visibility: 15 mi

Pressure: 29.72 "Hg

Humidity: 72%

Dew point: 3 °F

Location of Corner BrookLocation

Historic Weather in Corner Brook — Graph

°F

Corner Brook Temperature Yesterday

Maximum temperature yesterday: 18 °F (at 11:30 AM)
Minimum temperature yesterday: 7 °F (at 6:30 AM)
Average temperature yesterday: 15 °F

High & Low Weather Summary for the Past Weeks

 TemperatureHumidityPressure
High43 °F (Feb 1, 10:30 PM)100% (Feb 1, 6:30 AM)30.37 "Hg (Feb 1, 6:30 AM)
Low-2 °F (Jan 30, 11:30 PM)52% (Feb 14, 12:30 PM)29.19 "Hg (Feb 10, 6:30 AM)
Average23 °F79%29.80 "Hg
* Reported Jan 30 4:30 PM — Feb 14 4:30 PM, Corner Brook, Weather by CustomWeather, © 2016

Note: Actual official high and low records may vary slightly from our data, if they occured in-between our weather recording intervals... More about our weather records

Advertising

Corner Brook Weather History for the Previous 24 Hours

 ConditionsComfort  
Time TempWeatherWind HumidityBarometerVisibility
4:30 PM
Sun, Feb 14
12 °FPassing clouds.9 mph67%29.73 "Hg15 mi
3:30 PM14 °FScattered clouds.13 mph62%29.72 "Hg15 mi
2:30 PM14 °FScattered clouds.10 mph62%29.72 "Hg12 mi
1:30 PM14 °FScattered clouds.12 mph57%29.70 "Hg15 mi
12:30 PM14 °FScattered clouds.13 mph52%29.72 "Hg15 mi
11:30 AM14 °FBroken clouds.10 mph57%29.71 "Hg15 mi
10:30 AM12 °FPartly sunny.9 mph62%29.72 "Hg15 mi
9:30 AM10 °FSnow flurries. Broken clouds.6 mph72%29.72 "Hg15 mi
8:30 AM10 °FSnow flurries. Broken clouds.10 mph67%29.69 "Hg15 mi
7:30 AM10 °FSnow flurries. More clouds than sun.5 mph79%29.65 "Hg12 mi
6:30 AM12 °FSnow flurries. Mostly cloudy.6 mph73%29.62 "Hg15 mi
5:30 AM12 °FSnow flurries. Overcast.7 mph73%29.59 "Hg10 mi
4:30 AM12 °FSnow flurries. Overcast.3 mph73%29.57 "Hg6 mi
3:30 AM12 °FSnow flurries. Overcast.3 mph85%29.55 "Hg3 mi
2:30 AM12 °FSnow flurries. Overcast.2 mph79%29.55 "Hg3 mi
1:30 AM12 °FSnow flurries. Overcast.5 mph79%29.55 "Hg3 mi
12:30 AM14 °FSnow flurries. Overcast.7 mph79%29.56 "Hg3 mi
11:30 PM
Sat, Feb 13
14 °FSnow flurries. Ice fog.5 mph85%29.59 "Hg1 mi
10:30 PM14 °FSnow flurries. Ice fog.7 mph92%29.59 "Hg1 mi
9:30 PM16 °FSnow flurries. Overcast.5 mph79%29.62 "Hg6 mi
8:30 PM16 °FPassing clouds.6 mph73%29.63 "Hg15 mi
7:30 PM16 °FPartly cloudy.6 mph73%29.65 "Hg15 mi
6:30 PM16 °FPassing clouds.7 mph73%29.68 "Hg15 mi
Weather by CustomWeather, © 2016

See weather overviewHow to use our weather pages